This is the latest recevied weather packets stored in our database for station/object WV5G-13. If no packets are shown the sender has not sent any weather packets the latest 10 day(s).
| Time | Temp. | Humidity | Pressure | Rain* | Wind** | Luminosity | Snow |
|---|---|---|---|---|---|---|---|
| 1777930055 | 28.89° C | 21% | 1002.4 hPa | 0 mm | - | 366 W/m² | - |
| 1777929751 | 29.44° C | 20% | 1002.6 hPa | 0 mm | - | 335 W/m² | - |
| 1777929449 | 30° C | 18% | 1002.6 hPa | 0 mm | - | 528 W/m² | - |
| 1777929145 | 29.44° C | 19% | 1002.9 hPa | 0 mm | - | 455 W/m² | - |
| 1777928843 | 29.44° C | 21% | 1003 hPa | 0 mm | - | 717 W/m² | - |
| 1777928540 | 29.44° C | 20% | 1002.9 hPa | 0 mm | - | 445 W/m² | - |
| 1777928237 | 28.89° C | 21% | 1003.1 hPa | 0 mm | - | 546 W/m² | - |
| 1777927935 | 29.44° C | 21% | 1003.2 hPa | 0 mm | - | 475 W/m² | - |
| 1777927632 | 28.89° C | 21% | 1003.3 hPa | 0 mm | - | 603 W/m² | - |
| 1777927331 | 28.89° C | 21% | 1003.2 hPa | 0 mm | - | 595 W/m² | - |
| 1777927030 | 29.44° C | 19% | 1003.4 hPa | 0 mm | - | 539 W/m² | - |
| 1777926727 | 29.44° C | 19% | 1003.6 hPa | 0 mm | - | 724 W/m² | - |
| 1777926426 | 29.44° C | 19% | 1003.6 hPa | 0 mm | - | 559 W/m² | - |
| 1777926124 | 28.89° C | 20% | 1003.7 hPa | 0 mm | - | 511 W/m² | - |
| 1777925821 | 28.89° C | 22% | 1003.6 hPa | 0 mm | - | 498 W/m² | - |
| 1777925518 | 28.89° C | 22% | 1003.8 hPa | 0 mm | - | 529 W/m² | - |
| 1777925216 | 28.89° C | 22% | 1003.9 hPa | 0 mm | - | 489 W/m² | - |
| 1777924912 | 28.89° C | 22% | 1003.9 hPa | 0 mm | - | 449 W/m² | - |
| 1777924608 | 28.89° C | 23% | 1004 hPa | 0 mm | - | 599 W/m² | - |
| 1777924304 | 28.89° C | 21% | 1004 hPa | 0 mm | - | 508 W/m² | - |
| 1777924001 | 28.89° C | 23% | 1004.2 hPa | 0 mm | - | 484 W/m² | - |
| 1777923697 | 28.89° C | 22% | 1004.1 hPa | 0 mm | - | 473 W/m² | - |
| 1777923393 | 28.33° C | 22% | 1004.2 hPa | 0 mm | - | 461 W/m² | - |
| 1777923092 | 28.33° C | 23% | 1004.4 hPa | 0 mm | - | 461 W/m² | - |
| 1777922789 | 28.33° C | 23% | 1004.2 hPa | 0 mm | - | 489 W/m² | - |
* Rain latest hour (hover to see other rain measurements)
** Current wind speed in m/s (hover to see current wind gust speed)